Time,TemperatureF,DewpointF,PressureIn,WindDirection,WindDirectionDegrees,WindSpeedMPH,WindSpeedGustMPH,Humidity,HourlyPrecipIn,Conditions,Clouds,dailyrainin,SoftwareType,DateUTC
2013-05-01 00:00:00,60.3,27.0,29.87,SSW,207,0.0,0.0,28,0.00,,,-99.99,Weather View 32 v60,2013-05-01 07:00:00,
2013-05-01 00:10:00,59.9,28.3,29.87,NE,39,0.0,0.0,30,0.00,,,-99.99,Weather View 32 v60,2013-05-01 07:10:00,
2013-05-01 00:20:00,59.4,28.7,29.87,ENE,60,0.0,0.0,31,0.00,,,-99.99,Weather View 32 v60,2013-05-01 07:20:00,
2013-05-01 00:29:00,58.8,29.0,29.87,SSE,148,0.0,0.0,32,0.00,,,-99.99,Weather View 32 v60,2013-05-01 07:29:00,
2013-05-01 00:40:00,58.5,29.4,29.87,SSW,205,0.0,0.0,33,0.00,,,-99.99,Weather View 32 v60,2013-05-01 07:40:00,
2013-05-01 00:49:00,58.3,29.2,29.87,South,170,0.0,0.0,33,0.00,,,-99.99,Weather View 32 v60,2013-05-01 07:49:00,
2013-05-01 01:00:00,58.5,28.6,29.87,WSW,239,0.0,0.0,32,0.00,,,-99.99,Weather View 32 v60,2013-05-01 08:00:00,
2013-05-01 01:10:00,58.3,28.5,29.87,East,82,0.0,0.0,32,0.00,,,-99.99,Weather View 32 v60,2013-05-01 08:10:00,
2013-05-01 01:20:00,58.3,27.7,29.87,SE,133,0.0,0.0,31,0.00,,,-99.99,Weather View 32 v60,2013-05-01 08:20:00,
2013-05-01 01:30:00,58.3,26.9,29.87,SSE,163,0.0,0.0,30,0.00,,,-99.99,Weather View 32 v60,2013-05-01 08:30:00,
2013-05-01 01:50:00,58.6,26.4,29.87,WNW,290,0.0,0.0,29,0.00,,,-99.99,Weather View 32 v60,2013-05-01 08:50:00,
2013-05-01 02:00:00,58.5,26.3,29.87,SW,225,0.0,0.0,29,0.00,,,-99.99,Weather View 32 v60,2013-05-01 09:00:00,
2013-05-01 02:10:00,58.1,25.9,29.87,SE,129,0.0,0.0,29,0.00,,,-99.99,Weather View 32 v60,2013-05-01 09:10:00,
2013-05-01 02:24:00,57.9,26.6,29.87,WNW,293,0.0,0.0,30,0.00,,,-99.99,Weather View 32 v60,2013-05-01 09:24:00,
2013-05-01 02:30:00,57.6,26.3,29.87,NW,311,0.0,0.0,30,0.00,,,-99.99,Weather View 32 v60,2013-05-01 09:30:00,
2013-05-01 02:40:00,57.6,26.3,29.87,WNW,294,0.0,0.0,30,0.00,,,-99.99,Weather View 32 v60,2013-05-01 09:40:00,
2013-05-01 02:59:00,57.4,26.1,29.87,SW,214,0.0,0.0,30,0.00,,,-99.99,Weather View 32 v60,2013-05-01 09:59:00,
2013-05-01 03:19:00,59.0,25.9,29.87,SW,221,0.0,0.0,28,0.00,,,-99.99,Weather View 32 v60,2013-05-01 10:19:00,
2013-05-01 03:40:00,57.7,23.9,29.90,ESE,117,0.0,0.0,27,0.00,,,-99.99,Weather View 32 v60,2013-05-01 10:40:00,
2013-05-01 03:50:00,57.7,23.9,29.90,ESE,117,0.0,0.0,27,0.00,,,-99.99,Weather View 32 v60,2013-05-01 10:50:00,
2013-05-01 03:59:00,58.1,25.1,29.90,NNW,344,0.0,0.0,28,0.00,,,-99.99,Weather View 32 v60,2013-05-01 10:59:00,
2013-05-01 04:10:00,59.2,24.2,29.90,SW,235,0.0,0.0,26,0.00,,,-99.99,Weather View 32 v60,2013-05-01 11:10:00,
2013-05-01 04:25:00,59.2,24.2,29.90,SW,235,0.0,0.0,26,0.00,,,-99.99,Weather View 32 v60,2013-05-01 11:25:00,
2013-05-01 04:40:00,57.9,24.1,29.90,NNW,327,0.0,0.0,27,0.00,,,-99.99,Weather View 32 v60,2013-05-01 11:40:00,
2013-05-01 04:50:00,57.0,23.3,29.90,East,88,0.0,0.0,27,0.00,,,-99.99,Weather View 32 v60,2013-05-01 11:50:00,
2013-05-01 05:00:00,60.4,23.4,29.90,NE,38,0.0,7.0,24,0.00,,,-99.99,Weather View 32 v60,2013-05-01 12:00:00,
2013-05-01 05:20:00,65.5,25.5,29.90,NE,46,0.0,11.0,22,0.00,,,-99.99,Weather View 32 v60,2013-05-01 12:20:00,
2013-05-01 05:30:00,65.5,25.5,29.90,NE,46,0.0,11.0,22,0.00,,,-99.99,Weather View 32 v60,2013-05-01 12:30:00,
2013-05-01 05:40:00,65.1,26.3,29.93,NE,34,8.0,13.0,23,0.00,,,-99.99,Weather View 32 v60,2013-05-01 12:40:00,
2013-05-01 06:00:00,64.0,25.4,29.93,East,82,0.0,13.0,23,0.00,,,-99.99,Weather View 32 v60,2013-05-01 13:00:00,
2013-05-01 06:10:00,63.9,25.3,29.93,West,270,0.0,13.0,23,0.00,,,-99.99,Weather View 32 v60,2013-05-01 13:10:00,
2013-05-01 06:19:00,63.9,25.3,29.93,West,270,0.0,13.0,23,0.00,,,-99.99,Weather View 32 v60,2013-05-01 13:19:00,
2013-05-01 06:26:00,62.1,24.8,29.93,West,265,0.0,13.0,24,0.00,,,-99.99,Weather View 32 v60,2013-05-01 13:26:00,
2013-05-01 06:39:00,59.4,23.5,29.93,WSW,252,0.0,11.0,25,0.00,,,-99.99,Weather View 32 v60,2013-05-01 13:39:00,
2013-05-01 06:50:00,59.2,23.3,29.96,NNW,330,0.0,7.0,25,0.00,,,-99.99,Weather View 32 v60,2013-05-01 13:50:00,
2013-05-01 07:00:00,59.9,23.9,29.96,SW,234,0.0,7.0,25,0.00,,,-99.99,Weather View 32 v60,2013-05-01 14:00:00,
2013-05-01 07:10:00,60.1,24.1,29.96,SW,232,0.0,4.0,25,0.00,,,-99.99,Weather View 32 v60,2013-05-01 14:10:00,
2013-05-01 07:19:00,61.0,24.8,29.96,SSW,198,0.0,4.0,25,0.00,,,-99.99,Weather View 32 v60,2013-05-01 14:19:00,
2013-05-01 07:27:00,61.0,24.8,29.96,SSW,198,0.0,4.0,25,0.00,,,-99.99,Weather View 32 v60,2013-05-01 14:27:00,
2013-05-01 07:40:00,62.4,26.1,29.96,NE,40,0.0,5.0,25,0.00,,,-99.99,Weather View 32 v60,2013-05-01 14:40:00,
2013-05-01 08:40:00,62.4,26.1,29.96,NE,40,0.0,5.0,25,0.00,,,-99.99,Weather View 32 v60,2013-05-01 15:40:00,
2013-05-01 14:09:00,86.2,34.6,30.02,NNE,28,0.0,4.0,16,0.00,,,-99.99,Weather View 32 v60,2013-05-01 21:09:00,
2013-05-01 14:19:00,86.0,34.5,30.02,WNW,300,0.0,6.0,16,0.00,,,-99.99,Weather View 32 v60,2013-05-01 21:19:00,
2013-05-01 14:29:00,86.7,35.0,30.02,NE,39,3.0,6.0,16,0.00,,,-99.99,Weather View 32 v60,2013-05-01 21:29:00,
2013-05-01 14:39:00,87.1,33.7,30.02,NNE,19,0.0,7.0,15,0.00,,,-99.99,Weather View 32 v60,2013-05-01 21:39:00,
2013-05-01 14:49:00,86.0,34.5,30.02,NE,50,0.0,11.0,16,0.00,,,-99.99,Weather View 32 v60,2013-05-01 21:49:00,
2013-05-01 14:59:00,86.5,34.9,30.02,SW,229,0.0,11.0,16,0.00,,,-99.99,Weather View 32 v60,2013-05-01 21:59:00,
2013-05-01 15:09:00,86.9,35.2,30.02,NNE,21,0.0,11.0,16,0.00,,,-99.99,Weather View 32 v60,2013-05-01 22:09:00,
2013-05-01 15:19:00,87.1,33.7,30.02,NNE,18,5.0,11.0,15,0.00,,,-99.99,Weather View 32 v60,2013-05-01 22:19:00,
2013-05-01 15:29:00,87.4,38.6,30.02,WNW,297,0.0,11.0,18,0.00,,,-99.99,Weather View 32 v60,2013-05-01 22:29:00,
2013-05-01 15:39:00,88.2,34.6,30.02,NE,40,0.0,11.0,15,0.00,,,-99.99,Weather View 32 v60,2013-05-01 22:39:00,
2013-05-01 15:49:00,87.4,34.0,30.02,NNE,33,0.0,9.0,15,0.00,,,-99.99,Weather View 32 v60,2013-05-01 22:49:00,
2013-05-01 15:59:00,86.9,38.2,30.02,NE,38,0.0,10.0,18,0.00,,,-99.99,Weather View 32 v60,2013-05-01 22:59:00,
2013-05-01 16:09:00,87.1,38.3,30.02,NNE,23,0.0,12.0,18,0.00,,,-99.99,Weather View 32 v60,2013-05-01 23:09:00,
2013-05-01 16:19:00,88.0,39.0,30.02,ENE,77,0.0,12.0,18,0.00,,,-99.99,Weather View 32 v60,2013-05-01 23:19:00,
2013-05-01 16:29:00,88.0,39.0,30.02,NW,312,0.0,12.0,18,0.00,,,-99.99,Weather View 32 v60,2013-05-01 23:29:00,
2013-05-01 16:39:00,87.8,38.9,30.02,East,85,0.0,12.0,18,0.00,,,-99.99,Weather View 32 v60,2013-05-01 23:39:00,
2013-05-01 16:49:00,87.3,38.5,30.02,ENE,70,6.0,12.0,18,0.00,,,-99.99,Weather View 32 v60,2013-05-01 23:49:00,
2013-05-01 16:59:00,0.0,0.0,30.02,NNE,16,0.0,12.0,0,0.00,,,-99.99,Weather View 32 v60,2013-05-01 23:59:00,
2013-05-01 17:05:00,0.0,0.0,30.02,NNE,16,0.0,12.0,0,0.00,,,-99.99,Weather View 32 v60,2013-05-02 00:05:00,
2013-05-01 17:19:00,0.0,0.0,30.02,ENE,75,7.0,11.0,0,0.00,,,-99.99,Weather View 32 v60,2013-05-02 00:19:00,
2013-05-01 17:29:00,86.7,38.0,30.02,East,82,0.0,11.0,18,0.00,,,-99.99,Weather View 32 v60,2013-05-02 00:29:00,
2013-05-01 17:39:00,0.0,0.0,30.02,NNE,28,0.0,11.0,0,0.00,,,-99.99,Weather View 32 v60,2013-05-02 00:39:00,
2013-05-01 17:49:00,86.0,37.4,30.02,ENE,77,0.0,10.0,18,0.00,,,-99.99,Weather View 32 v60,2013-05-02 00:49:00,
2013-05-01 17:59:00,85.6,37.1,30.02,East,89,0.0,9.0,18,0.00,,,-99.99,Weather View 32 v60,2013-05-02 00:59:00,
2013-05-01 18:05:00,85.6,37.1,30.02,East,89,0.0,9.0,18,0.00,,,-99.99,Weather View 32 v60,2013-05-02 01:05:00,
2013-05-01 18:19:00,86.5,37.9,30.02,NNE,22,0.0,9.0,18,0.00,,,-99.99,Weather View 32 v60,2013-05-02 01:19:00,
2013-05-01 18:29:00,86.0,37.4,30.02,ENE,75,0.0,9.0,18,0.00,,,-99.99,Weather View 32 v60,2013-05-02 01:29:00,
2013-05-01 18:39:00,85.6,37.1,30.02,NE,34,0.0,9.0,18,0.00,,,-99.99,Weather View 32 v60,2013-05-02 01:39:00,
2013-05-01 18:49:00,85.5,37.0,30.02,East,84,3.0,9.0,18,0.00,,,-99.99,Weather View 32 v60,2013-05-02 01:49:00,
2013-05-01 18:59:00,84.9,36.6,30.02,NE,55,4.0,9.0,18,0.00,,,-99.99,Weather View 32 v60,2013-05-02 01:59:00,
2013-05-01 19:06:00,84.9,36.6,30.02,NE,55,4.0,9.0,18,0.00,,,-99.99,Weather View 32 v60,2013-05-02 02:06:00,
2013-05-01 19:19:00,84.4,36.1,30.02,NE,54,0.0,9.0,18,0.00,,,-99.99,Weather View 32 v60,2013-05-02 02:19:00,
2013-05-01 19:29:00,83.8,35.7,30.02,NE,42,0.0,8.0,18,0.00,,,-99.99,Weather View 32 v60,2013-05-02 02:29:00,
2013-05-01 19:39:00,83.3,35.3,30.02,East,100,0.0,7.0,18,0.00,,,-99.99,Weather View 32 v60,2013-05-02 02:39:00,
2013-05-01 19:49:00,82.0,35.6,30.02,ESE,108,0.0,7.0,19,0.00,,,-99.99,Weather View 32 v60,2013-05-02 02:49:00,
2013-05-01 19:59:00,80.6,35.7,30.02,ESE,108,0.0,6.0,20,0.00,,,-99.99,Weather View 32 v60,2013-05-02 02:59:00,
2013-05-01 20:06:00,80.6,35.7,30.02,ESE,108,0.0,6.0,20,0.00,,,-99.99,Weather View 32 v60,2013-05-02 03:06:00,
2013-05-01 20:19:00,78.1,33.6,30.05,ESE,108,0.0,3.0,20,0.00,,,-99.99,Weather View 32 v60,2013-05-02 03:19:00,
2013-05-01 20:29:00,77.0,32.8,30.05,ESE,108,0.0,0.0,20,0.00,,,-99.99,Weather View 32 v60,2013-05-02 03:29:00,
2013-05-01 20:39:00,75.4,32.6,30.05,ESE,108,0.0,0.0,21,0.00,,,-99.99,Weather View 32 v60,2013-05-02 03:39:00,
2013-05-01 20:49:00,74.1,32.7,30.05,ESE,108,0.0,0.0,22,0.00,,,-99.99,Weather View 32 v60,2013-05-02 03:49:00,
2013-05-01 20:59:00,72.9,31.7,30.05,SE,126,0.0,0.0,22,0.00,,,-99.99,Weather View 32 v60,2013-05-02 03:59:00,
2013-05-01 21:07:00,72.9,31.7,30.05,SE,126,0.0,0.0,22,0.00,,,-99.99,Weather View 32 v60,2013-05-02 04:07:00,
2013-05-01 21:19:00,71.1,32.4,30.05,SSE,151,0.0,0.0,24,0.00,,,-99.99,Weather View 32 v60,2013-05-02 04:19:00,
2013-05-01 21:29:00,70.3,32.8,30.05,SSE,151,0.0,0.0,25,0.00,,,-99.99,Weather View 32 v60,2013-05-02 04:29:00,
2013-05-01 21:39:00,69.6,33.1,30.08,SSE,151,0.0,0.0,26,0.00,,,-99.99,Weather View 32 v60,2013-05-02 04:39:00,
2013-05-01 21:49:00,69.1,33.6,30.08,SSE,151,0.0,0.0,27,0.00,,,-99.99,Weather View 32 v60,2013-05-02 04:49:00,
2013-05-01 21:59:00,68.5,34.1,30.08,SSE,151,0.0,0.0,28,0.00,,,-99.99,Weather View 32 v60,2013-05-02 04:59:00,
2013-05-01 22:07:00,68.5,34.1,30.08,SSE,151,0.0,0.0,28,0.00,,,-99.99,Weather View 32 v60,2013-05-02 05:07:00,
2013-05-01 22:19:00,67.5,34.0,30.08,NW,320,0.0,0.0,29,0.00,,,-99.99,Weather View 32 v60,2013-05-02 05:19:00,
2013-05-01 22:29:00,66.6,34.9,30.08,NNE,24,0.0,0.0,31,0.00,,,-99.99,Weather View 32 v60,2013-05-02 05:29:00,
2013-05-01 22:39:00,66.0,35.2,30.08,NNE,24,0.0,0.0,32,0.00,,,-99.99,Weather View 32 v60,2013-05-02 05:39:00,
2013-05-01 22:49:00,65.5,34.8,30.08,WNW,296,0.0,0.0,32,0.00,,,-99.99,Weather View 32 v60,2013-05-02 05:49:00,
2013-05-01 22:59:00,65.1,35.2,30.08,WNW,297,0.0,0.0,33,0.00,,,-99.99,Weather View 32 v60,2013-05-02 05:59:00,
2013-05-01 23:08:00,65.1,35.2,30.08,WNW,297,0.0,0.0,33,0.00,,,-99.99,Weather View 32 v60,2013-05-02 06:08:00,
2013-05-01 23:19:00,63.9,34.1,30.11,NNW,341,0.0,0.0,33,0.00,,,-99.99,Weather View 32 v60,2013-05-02 06:19:00,
2013-05-01 23:29:00,63.5,34.6,30.11,SSW,210,0.0,0.0,34,0.00,,,-99.99,Weather View 32 v60,2013-05-02 06:29:00,
2013-05-01 23:39:00,63.1,35.0,30.08,SSW,213,0.0,0.0,35,0.00,,,-99.99,Weather View 32 v60,2013-05-02 06:39:00,
2013-05-01 23:49:00,62.6,34.5,30.08,SSW,213,0.0,0.0,35,0.00,,,-99.99,Weather View 32 v60,2013-05-02 06:49:00,
2013-05-01 23:59:00,62.1,34.7,30.08,SSW,213,0.0,0.0,36,0.00,,,-99.99,Weather View 32 v60,2013-05-02 06:59:00,